View from above orbital plane
|
View from above satellite
|
Ground track
|
The orbit data is extracted from the following two-line orbital elements,
1 38770U 12048N 21089.79090041 0.00001400 00000-0 95358-4 0 02
2 38770 64.6570 337.7292 0140332 38.1948 321.8052 14.98263560 09
Epoch (UTC): | 30 March 2021 18:58:53 |
Eccentricity: | 0.0140332 |
inclination: | 64.6570° |
perigee height: | 475 km |
apogee height: | 670 km |
right ascension of ascending node: | 337.7292° |
argument of perigee: | 38.1948° |
revolutions per day: | 14.98263560 |
mean anomaly at epoch: | 321.8052° |
orbit number at epoch: | 0 |
The dashed part of the orbit path shows where the satellite is in the earth's shadow,
|
|